RH
10 11 11 12 14 20 26 45 34 24 18 18 14 13 9 7 7 5 8 7 7 5 2 5 20 40 46 44 24 17 15 17 21 31 26 31 37 42 40 43 44 89 72
7 7 7 6 6 9 13 8 4 4 5 7 8 8 7 8 7 6 6 5 4 3 12 32 35 38 41 41 46 44 29 40 23 22 17 20 25 33 39 39 37 30 79
8 8 8 8 6 5 4 4 4 3 3 5 8 8 8 9 9 8 7 6 5 4 3 4 4 6 11 12 13 18 28 39 40 47 48 32 18 12 18 26 53 69 66
8 8 8 8 5 4 10 9 5 4 4 7 8 9 9 9 10 10 9 8 7 6 4 4 4 4 4 4 4 6 13 16 15 24 25 30 35 33 32 25 21 42 79
8 8 8 6 4 4 6 8 8 7 7 7 7 8 8 9 10 10 10 8 7 5 4 5 4 4 4 5 5 4 4 4 7 10 13 10 10 16 17 21 22 45 52
8 8 7 4 3 3 4 5 4 4 5 7 8 7 7 8 11 12 12 11 7 6 6 6 6 5 5 5 4 4 5 4 3 3 5 7 8 10 11 12 12 11 8
7 5 4 3 4 4 5 6 8 11 12 10 8 9 11 12 15 16 14 11 8 7 8 8 7 6 6 5 5 4 3 2 2 2 2 2 3 4 6 7 8 7 7
4 4 4 4 5 6 6 7 11 14 13 10 7 8 14 17 20 19 15 12 11 10 9 8 7 6 5 5 4 2 1 2 2 2 2 3 3 4 4 4 4 4 3
4 4 4 4 5 5 5 7 10 15 16 7 6 9 14 19 19 16 14 12 10 9 8 7 6 6 6 4 2 2 2 2 3 3 2 2 3 4 6 6 6 6 8
4 4 4 4 4 5 6 9 13 18 14 8 11 18 22 22 17 13 12 11 9 8 7 7 6 6 4 2 2 4 5 6 5 4 4 4 4 3 3 4 4 5 6
3 4 4 4 5 9 14 14 18 22 15 12 14 21 24 21 16 16 14 10 9 8 7 7 6 4 2 4 6 6 6 6 7 8 8 7 6 6 5 5 6 6 7
4 6 6 8 16 18 18 20 28 23 20 21 17 24 24 21 22 21 13 10 9 8 8 7 4 3 5 7 6 6 6 6 6 6 6 7 8 10 13 14 15 15 13
13 12 15 21 24 28 34 35 34 25 24 25 25 28 28 30 29 22 14 12 11 10 8 6 4 5 8 7 6 6 7 8 8 8 8 8 7 8 8 9 10 11 14
24 25 25 24 24 34 34 37 29 26 26 28 27 31 30 29 31 30 28 18 13 10 7 4 4 7 7 6 7 8 9 10 11 12 12 12 11 10 9 10 10 10 11
30 25 23 36 40 34 31 27 27 27 28 32 31 24 35 33 32 34 36 22 14 10 6 4 6 7 7 8 8 9 10 12 14 14 14 13 12 12 13 14 13 13 15
25 24 27 40 39 34 30 29 30 31 33 37 38 27 34 40 40 42 39 21 14 9 5 6 9 8 8 9 11 12 14 15 15 12 10 11 13 15 16 17 18 21 24
23 30 38 41 38 33 28 21 27 36 32 38 38 31 40 46 53 56 39 19 13 7 6 9 9 9 11 13 16 17 17 16 12 10 11 12 14 16 20 26 32 36 39
38 36 34 33 33 26 19 15 12 16 33 52 43 31 32 44 56 51 28 17 11 6 8 10 10 12 14 17 19 20 16 10 10 12 14 17 22 30 36 38 39 41 42
45 47 40 30 33 32 24 18 13 11 20 38 65 55 31 44 54 36 23 16 8 7 11 13 16 18 20 22 23 18 10 10 14 16 20 26 34 39 40 41 45 54 58
60 59 58 30 25 23 19 15 15 16 21 39 44 36 46 56 45 26 21 12 6 11 15 18 21 24 25 25 20 11 11 14 17 21 26 31 38 41 48 54 56 51 45
65 67 54 33 29 31 14 13 20 24 26 42 62 43 38 44 30 25 22 10 8 15 19 24 28 28 28 25 15 11 15 18 22 26 30 37 42 52 52 52 44 40 33
74 74 61 46 41 49 27 16 18 28 32 40 63 61 50 40 29 28 21 8 12 20 26 31 32 31 30 22 12 14 16 22 26 29 34 39 50 52 51 45 36 31 34
70 76 71 54 59 45 25 19 24 30 36 52 67 58 59 44 35 31 19 9 16 25 32 34 35 34 29 17 12 16 20 24 27 29 36 43 52 52 43 34 35 38 51
79 83 95 92 55 29 27 27 31 40 45 61 74 70 64 48 38 34 17 10 20 30 36 37 36 35 25 15 15 18 21 25 28 31 37 46 52 54 43 34 37 48 75
86 96 96 91 34 23 23 32 36 50 54 62 65 69 68 51 45 38 16 10 22 33 38 38 36 34 22 15 18 22 24 27 30 32 40 47 52 54 49 35 36 50 68
88 88 85 74 24 21 25 39 41 58 67 68 74 80 70 56 50 40 15 11 25 36 41 37 36 32 20 18 21 22 26 28 30 33 40 47 51 53 49 36 35 39 48
Wind_Speed
10 10 9 9 8 9 9 10 11 11 12 13 14 15 15 17 19 20 19 21 20 20 20 19 18 17 19 20 18 18 19 21 20 26 28 30 28 32 33 34 31 33 39
12 13 13 13 11 11 11 12 13 13 13 13 14 14 15 18 19 18 19 19 20 20 20 20 20 21 21 20 22 22 22 23 22 22 26 28 29 31 33 35 33 34 30
10 12 14 16 14 13 13 13 12 13 13 14 13 14 16 18 20 20 21 21 21 22 21 20 20 19 19 20 21 23 25 26 28 28 30 30 31 34 33 33 34 34 34
9 12 15 15 13 13 13 13 12 11 12 12 13 16 19 21 22 23 22 22 22 22 22 23 23 23 23 24 25 27 28 31 33 34 37 39 40 37 37 38 37 37 37
11 13 14 13 10 10 11 12 12 13 16 18 20 21 23 24 26 25 24 25 25 24 24 25 26 26 27 28 29 32 34 37 40 42 42 42 44 44 43 42 42 39 37
13 14 13 10 11 11 11 13 15 17 19 20 22 24 26 28 28 27 26 25 24 25 26 27 26 26 29 30 31 37 41 43 44 43 44 45 46 47 46 45 43 44 42
13 10 9 9 11 12 12 14 17 20 21 22 23 25 27 27 25 24 22 21 22 24 26 27 27 29 31 34 40 44 44 42 38 37 37 37 39 41 42 43 43 43 42
7 7 7 9 11 13 15 18 21 24 27 25 24 23 24 23 21 19 19 20 22 24 26 28 28 30 35 41 45 44 38 34 32 33 33 33 33 33 32 30 29 29 30
6 7 9 11 14 17 20 23 25 26 27 24 24 27 25 20 18 17 18 20 21 25 27 29 30 35 39 43 40 35 32 31 32 33 32 33 33 33 33 32 32 31 31
7 9 11 13 15 17 20 22 24 28 23 23 25 25 21 19 19 20 21 22 25 24 27 29 33 38 41 37 34 32 31 33 35 35 33 33 32 33 35 35 35 35 34
8 9 10 12 15 15 19 21 24 25 25 25 27 25 22 20 20 23 25 25 25 27 29 32 37 39 34 33 33 35 37 36 36 35 34 36 37 35 36 36 36 36 37
10 12 12 13 14 17 21 24 27 24 28 31 27 25 23 22 23 24 24 25 27 29 31 35 38 34 33 33 35 36 36 37 37 38 39 38 38 39 38 40 40 40 39
12 14 16 18 22 25 25 23 25 24 26 29 25 24 23 26 27 26 27 28 28 29 32 35 36 35 34 36 39 38 38 38 39 41 41 41 42 41 42 41 41 42 42
13 15 20 23 27 25 23 23 25 23 25 27 26 25 25 27 26 26 27 28 30 31 34 35 34 34 35 37 37 39 40 41 43 44 46 46 46 45 45 44 45 45 43
16 20 24 21 22 21 24 27 28 25 27 31 30 29 28 28 30 32 31 31 31 33 36 37 35 36 37 38 40 42 43 45 46 49 49 49 47 47 47 47 46 45 43
17 22 24 21 23 25 29 31 30 28 31 35 34 30 29 31 33 34 32 31 32 34 36 36 37 38 40 43 44 46 48 50 52 52 50 49 48 47 45 45 44 42 40
18 21 20 22 26 29 32 32 31 30 34 37 32 30 31 33 34 34 31 31 33 36 36 36 37 39 41 44 47 50 52 54 54 52 51 49 47 46 45 44 41 39 37
16 20 22 25 26 30 33 36 38 38 36 35 31 31 32 36 32 29 30 31 34 34 34 35 38 41 45 47 50 53 55 54 52 50 48 47 47 44 41 40 38 36 35
18 22 25 27 28 31 35 39 43 44 40 38 32 34 33 35 30 28 31 33 35 34 35 37 39 43 47 50 53 54 53 51 48 46 47 45 42 40 38 36 34 33 30
23 28 31 30 32 33 36 40 44 43 41 40 35 32 31 31 27 26 27 32 35 34 35 38 42 45 48 52 54 54 51 48 46 45 44 41 39 36 33 31 29 28 28
23 23 28 33 34 37 39 40 44 42 43 41 35 37 35 31 30 31 33 35 35 36 36 40 43 46 50 53 53 52 48 46 44 43 41 39 36 32 30 29 28 28 28
24 25 29 33 33 38 41 40 43 43 44 45 39 35 34 32 31 32 33 33 33 35 38 41 45 49 52 53 52 49 45 44 43 41 40 38 34 32 30 29 29 27 25
35 35 31 35 36 38 41 43 44 43 44 43 38 34 34 32 31 33 35 33 33 35 39 43 47 50 53 52 51 46 44 43 41 40 37 35 33 31 31 30 28 26 25
43 50 50 38 40 40 39 44 44 42 42 39 36 38 37 34 34 35 36 34 33 36 40 44 47 50 50 49 48 44 43 42 40 38 35 33 31 31 32 30 28 27 27
42 42 58 36 40 39 39 43 43 42 41 38 36 40 37 34 35 35 37 35 34 36 40 44 47 50 50 48 45 42 42 41 40 37 34 32 31 31 32 30 28 28 31
46 44 32 32 38 38 40 41 42 42 41 37 36 39 36 35 36 36 38 35 34 37 41 44 46 48 48 46 43 41 41 39 38 37 34 32 32 31 32 32 30 31 34
Wind_Direction
62 49 38 28 12 359 348 346 333 332 327 327 328 326 330 331 333 332 332 331 328 328 325 328 329 326 323 325 332 329 323 320 310 298 299 297 294 294 291 291 293 286 273
48 36 25 15 6 359 354 349 341 337 336 336 329 329 333 336 334 332 328 325 327 327 329 325 322 319 317 321 323 327 328 324 315 311 307 305 303 298 296 295 295 286 288
28 19 12 6 359 356 347 341 337 338 342 338 334 329 327 328 330 328 327 325 324 323 322 324 323 322 319 318 319 319 318 315 313 309 303 298 294 293 295 295 294 291 280
358 359 357 356 356 357 359 0 355 351 343 337 327 323 322 321 323 323 322 319 318 319 319 323 321 318 317 314 313 312 311 311 309 306 303 300 297 296 294 292 292 288 287
340 342 342 348 356 359 2 5 3 354 340 331 325 320 314 312 311 313 315 317 319 319 316 319 318 315 314 313 313 312 311 308 306 304 300 297 296 295 293 291 289 286 292
334 332 335 348 356 354 349 346 340 334 329 325 319 312 308 306 307 311 313 314 315 315 315 316 314 310 310 311 311 308 308 306 302 299 296 294 292 290 291 292 290 287 286
324 332 345 354 357 355 352 346 340 335 332 326 319 313 310 310 312 314 314 312 308 309 312 313 313 313 313 313 313 312 307 303 301 301 299 298 297 296 293 292 290 289 288
321 333 345 345 345 343 338 338 340 341 340 334 327 320 319 321 319 317 314 315 313 309 312 315 315 316 314 312 313 311 308 306 309 312 310 303 300 300 301 301 300 296 290
322 332 339 341 339 339 339 339 340 342 341 338 329 323 327 327 325 321 317 312 312 314 316 320 316 312 314 317 317 316 315 315 315 314 312 308 302 300 298 299 300 299 296
336 343 343 340 339 340 334 337 339 343 343 336 324 326 325 323 322 321 320 317 317 320 321 317 316 318 320 321 320 318 318 318 316 314 312 309 304 300 297 296 295 295 294
332 332 341 348 334 330 339 341 342 346 348 342 331 331 327 324 325 325 323 323 324 324 323 322 322 323 322 322 323 322 321 318 314 311 309 307 304 301 298 297 296 294 292
329 334 338 330 328 335 338 342 344 352 353 348 336 335 332 328 328 324 320 321 324 325 326 326 325 323 323 325 324 323 321 321 320 317 314 309 303 300 297 295 293 290 287
323 320 325 327 332 334 331 332 344 347 349 349 338 332 331 332 328 324 322 322 324 324 326 327 327 327 326 326 326 325 325 323 322 320 318 314 309 304 300 296 292 290 288
313 321 322 321 324 334 347 353 348 342 341 344 337 330 328 330 328 325 320 319 323 326 328 329 326 324 326 325 324 325 324 322 321 320 318 315 309 303 298 293 290 289 288
317 325 332 332 335 349 356 356 348 341 336 338 336 326 324 325 326 325 322 322 324 328 330 326 324 326 326 325 325 323 323 322 321 321 317 311 303 298 298 296 296 296 295
328 334 337 340 339 347 354 351 348 342 337 334 332 329 329 328 327 325 322 321 323 328 327 326 327 327 326 325 325 325 324 323 323 321 314 308 307 307 305 302 300 297 296
339 342 343 346 344 341 343 348 346 339 335 330 327 328 331 330 327 323 321 323 326 327 327 326 325 326 327 327 327 327 326 326 323 319 316 316 314 311 308 305 303 301 299
342 342 338 337 336 339 342 343 345 341 335 328 324 323 325 333 329 325 323 325 325 324 323 325 327 329 331 331 330 329 328 326 323 321 319 316 315 314 311 307 305 304 302
317 326 334 336 336 338 339 339 340 338 333 331 322 321 319 327 324 323 324 325 324 323 326 328 330 332 333 332 331 331 329 326 324 322 319 319 319 316 314 312 311 310 308
300 304 317 328 334 335 337 339 339 335 332 328 326 322 325 324 319 317 318 324 325 326 329 331 333 335 334 335 333 332 331 328 326 325 324 324 322 321 319 318 316 314 312
307 309 311 321 328 333 334 337 337 331 330 329 323 324 328 325 321 323 326 328 327 326 329 333 334 334 336 337 335 335 332 330 330 330 329 327 326 325 324 323 322 319 316
308 300 309 317 321 325 329 331 331 331 329 327 324 326 323 321 318 319 322 326 324 326 331 334 334 336 338 337 337 336 333 334 333 332 330 329 329 328 329 328 327 325 323
296 305 306 314 314 322 326 327 330 329 328 325 325 323 321 316 314 317 323 326 324 328 331 332 335 338 338 338 339 337 335 335 334 333 331 330 330 332 333 332 331 329 327
311 306 302 302 313 317 325 328 326 327 326 324 323 319 318 317 316 318 322 322 324 327 329 331 334 338 337 339 340 337 337 336 335 334 332 331 331 334 336 335 333 330 328
301 298 306 306 312 312 321 325 323 325 324 321 320 318 315 313 313 316 320 320 321 324 327 330 335 336 339 342 340 337 337 336 336 335 333 332 332 334 337 335 332 328 326
282 302 317 310 304 315 320 325 323 323 320 316 316 315 313 310 311 314 319 319 319 322 326 330 334 337 340 341 340 336 337 337 337 336 335 334 334 335 336 337 333 329 329